TimeEDT,TemperatureF,Dew PointF,Humidity,Sea Level PressureIn,VisibilityMPH,Wind Direction,Wind SpeedMPH,Gust SpeedMPH,PrecipitationIn,Events,Conditions,WindDirDegrees,DateUTC
12:53 AM,51.1,46.9,86,30.17,10.0,Calm,Calm,-,N/A,,Clear,0,2013-05-14 04:53:00
1:53 AM,54.0,42.1,64,30.18,10.0,North,3.5,-,N/A,,Clear,350,2013-05-14 05:53:00
2:53 AM,48.9,43.0,80,30.18,10.0,Calm,Calm,-,N/A,,Clear,0,2013-05-14 06:53:00
3:53 AM,51.1,41.0,68,30.18,10.0,NNW,5.8,-,N/A,,Clear,340,2013-05-14 07:53:00
4:53 AM,48.0,41.0,77,30.19,10.0,NNW,3.5,-,N/A,,Clear,330,2013-05-14 08:53:00
5:53 AM,52.0,35.1,53,30.19,10.0,NNE,4.6,-,N/A,,Clear,20,2013-05-14 09:53:00
6:53 AM,46.9,41.0,80,30.22,10.0,Calm,Calm,-,N/A,,Clear,0,2013-05-14 10:53:00
7:53 AM,54.0,39.0,57,30.24,10.0,NE,6.9,-,N/A,,Clear,40,2013-05-14 11:53:00
8:53 AM,57.9,39.9,51,30.26,10.0,East,5.8,-,N/A,,Clear,90,2013-05-14 12:53:00
9:53 AM,62.1,39.0,43,30.27,10.0,ESE,5.8,-,N/A,,Clear,120,2013-05-14 13:53:00
10:53 AM,66.0,37.0,34,30.27,10.0,Variable,4.6,-,N/A,,Clear,0,2013-05-14 14:53:00
11:53 AM,68.0,36.0,31,30.28,10.0,SE,3.5,-,N/A,,Clear,140,2013-05-14 15:53:00
12:53 PM,70.0,33.1,26,30.27,10.0,Calm,Calm,-,N/A,,Clear,0,2013-05-14 16:53:00
1:53 PM,71.1,35.1,27,30.25,10.0,SE,4.6,-,N/A,,Clear,130,2013-05-14 17:53:00
2:53 PM,72.0,34.0,25,30.21,10.0,Calm,Calm,-,N/A,,Clear,0,2013-05-14 18:53:00
3:53 PM,73.9,36.0,25,30.18,10.0,West,4.6,-,N/A,,Clear,280,2013-05-14 19:53:00
4:53 PM,75.0,37.0,25,30.17,10.0,West,5.8,-,N/A,,Clear,280,2013-05-14 20:53:00
5:53 PM,75.0,36.0,24,30.17,10.0,WSW,6.9,-,N/A,,Clear,240,2013-05-14 21:53:00
6:53 PM,73.9,37.9,27,30.16,10.0,South,5.8,-,N/A,,Clear,190,2013-05-14 22:53:00
7:53 PM,71.1,41.0,34,30.16,10.0,South,4.6,-,N/A,,Clear,180,2013-05-14 23:53:00
8:53 PM,63.0,46.9,56,30.16,10.0,Calm,Calm,-,N/A,,Clear,0,2013-05-15 00:53:00
9:53 PM,61.0,46.9,60,30.16,10.0,SSW,4.6,-,N/A,,Clear,210,2013-05-15 01:53:00
10:53 PM,62.1,48.9,62,30.17,10.0,SSW,5.8,-,N/A,,Clear,200,2013-05-15 02:53:00
11:53 PM,60.1,48.9,67,30.15,10.0,South,4.6,-,N/A,,Clear,190,2013-05-15 03:53:00